Year,Month,Day,Hour,Minute,Value (Times are PST for temperature in C)
2009,04,26,00,00,6.90
2009,04,26,00,01,6.90
2009,04,26,00,02,6.90
2009,04,26,00,03,6.90
2009,04,26,00,04,6.90
2009,04,26,00,05,6.90
2009,04,26,00,06,6.90
2009,04,26,00,07,6.90
2009,04,26,00,08,6.90
2009,04,26,00,09,6.80
2009,04,26,00,10,6.80
2009,04,26,00,11,6.80
2009,04,26,00,12,6.80
2009,04,26,00,13,6.80
2009,04,26,00,14,6.80
2009,04,26,00,15,6.80
2009,04,26,00,16,6.80
2009,04,26,00,17,6.80
2009,04,26,00,18,6.80
2009,04,26,00,19,6.80
2009,04,26,00,20,6.80
2009,04,26,00,21,6.80
2009,04,26,00,22,6.80
2009,04,26,00,23,6.80
2009,04,26,00,24,6.70
2009,04,26,00,25,6.70
2009,04,26,00,26,6.70
2009,04,26,00,27,6.70
2009,04,26,00,28,6.70
2009,04,26,00,29,6.70
2009,04,26,00,30,6.60
2009,04,26,00,31,6.60
2009,04,26,00,32,6.60
2009,04,26,00,33,6.60
2009,04,26,00,34,6.60
2009,04,26,00,35,6.60
2009,04,26,00,36,6.60
2009,04,26,00,37,6.60
2009,04,26,00,38,6.50
2009,04,26,00,39,6.50
2009,04,26,00,40,6.50
2009,04,26,00,41,6.50
2009,04,26,00,42,6.40
2009,04,26,00,43,6.40
2009,04,26,00,44,6.40
2009,04,26,00,45,6.40
2009,04,26,00,46,6.40
2009,04,26,00,47,6.40
2009,04,26,00,48,6.40
2009,04,26,00,49,6.30
2009,04,26,00,50,6.30
2009,04,26,00,51,6.30
2009,04,26,00,52,6.30
2009,04,26,00,53,6.30
2009,04,26,00,54,6.30
2009,04,26,00,55,6.30
2009,04,26,00,56,6.30
2009,04,26,00,57,6.30
2009,04,26,00,58,6.30
2009,04,26,00,59,6.30
2009,04,26,01,00,6.30
2009,04,26,01,01,6.30
2009,04,26,01,02,6.30
2009,04,26,01,03,6.30
2009,04,26,01,04,6.30
2009,04,26,01,05,6.30
2009,04,26,01,06,6.30
2009,04,26,01,07,6.30
2009,04,26,01,08,6.20
2009,04,26,01,09,6.20
2009,04,26,01,10,6.20
2009,04,26,01,11,6.20
2009,04,26,01,12,6.20
2009,04,26,01,13,6.20
2009,04,26,01,14,6.10
2009,04,26,01,15,6.10
2009,04,26,01,16,6.10
2009,04,26,01,17,6.10
2009,04,26,01,18,6.10
2009,04,26,01,19,6.10
2009,04,26,01,20,6.10
2009,04,26,01,21,6.10
2009,04,26,01,22,6.10
2009,04,26,01,23,6.10
2009,04,26,01,24,6.10
2009,04,26,01,25,6.10
2009,04,26,01,26,6.10
2009,04,26,01,27,6.10
2009,04,26,01,28,6.10
2009,04,26,01,29,6.00
2009,04,26,01,30,6.00
2009,04,26,01,31,6.00
2009,04,26,01,32,6.00
2009,04,26,01,33,6.00
2009,04,26,01,34,6.00
2009,04,26,01,35,6.00
2009,04,26,01,36,5.90
2009,04,26,01,37,5.90
2009,04,26,01,38,5.90
2009,04,26,01,39,5.90
2009,04,26,01,40,5.90
2009,04,26,01,41,5.90
2009,04,26,01,42,5.90
2009,04,26,01,43,5.90
2009,04,26,01,44,5.80
2009,04,26,01,45,5.80
2009,04,26,01,46,5.80
2009,04,26,01,47,5.80
2009,04,26,01,48,5.80
2009,04,26,01,49,5.80
2009,04,26,01,50,5.80
2009,04,26,01,51,5.80
2009,04,26,01,52,5.80
2009,04,26,01,53,5.80
2009,04,26,01,54,5.80
2009,04,26,01,55,5.80
2009,04,26,01,56,5.70
2009,04,26,01,57,5.70
2009,04,26,01,58,5.70
2009,04,26,01,59,5.70
2009,04,26,02,00,5.70
2009,04,26,02,01,5.60
2009,04,26,02,02,5.60
2009,04,26,02,03,5.60
2009,04,26,02,04,5.60
2009,04,26,02,05,5.50
2009,04,26,02,06,5.50
2009,04,26,02,07,5.40
2009,04,26,02,08,5.40
2009,04,26,02,09,5.40
2009,04,26,02,10,5.40
2009,04,26,02,11,5.40
2009,04,26,02,12,5.40
2009,04,26,02,13,5.30
2009,04,26,02,14,5.30
2009,04,26,02,15,5.30
2009,04,26,02,16,5.20
2009,04,26,02,17,5.20
2009,04,26,02,18,5.20
2009,04,26,02,19,5.10
2009,04,26,02,20,5.10
2009,04,26,02,21,5.10
2009,04,26,02,22,5.10
2009,04,26,02,23,5.10
2009,04,26,02,24,5.00
2009,04,26,02,25,5.00
2009,04,26,02,26,5.00
2009,04,26,02,27,5.00
2009,04,26,02,28,4.90
2009,04,26,02,29,4.90
2009,04,26,02,30,4.90
2009,04,26,02,31,4.90
2009,04,26,02,32,4.90
2009,04,26,02,33,4.90
2009,04,26,02,34,4.90
2009,04,26,02,35,5.00
2009,04,26,02,36,5.00
2009,04,26,02,37,5.00
2009,04,26,02,38,5.00
2009,04,26,02,39,5.10
2009,04,26,02,40,5.10
2009,04,26,02,41,5.10
2009,04,26,02,42,5.10
2009,04,26,02,43,5.10
2009,04,26,02,44,5.10
2009,04,26,02,45,5.10
2009,04,26,02,46,5.10
2009,04,26,02,47,5.10
2009,04,26,02,48,5.10
2009,04,26,02,49,5.10
2009,04,26,02,50,5.00
2009,04,26,02,51,5.00
2009,04,26,02,52,5.00
2009,04,26,02,53,4.90
2009,04,26,02,54,4.90
2009,04,26,02,55,4.90
2009,04,26,02,56,4.90
2009,04,26,02,57,4.90
2009,04,26,02,58,4.90
2009,04,26,02,59,4.90
2009,04,26,03,00,4.90
2009,04,26,03,01,4.90
2009,04,26,03,02,4.90
2009,04,26,03,03,4.90
2009,04,26,03,04,4.90
2009,04,26,03,05,4.90
2009,04,26,03,06,4.90
2009,04,26,03,07,4.90
2009,04,26,03,08,4.90
2009,04,26,03,09,4.90
2009,04,26,03,10,4.90
2009,04,26,03,11,4.90
2009,04,26,03,12,4.90
2009,04,26,03,13,4.90
2009,04,26,03,14,4.90
2009,04,26,03,15,4.90
2009,04,26,03,16,4.90
2009,04,26,03,17,4.90
2009,04,26,03,18,4.80
2009,04,26,03,19,4.80
2009,04,26,03,20,4.80
2009,04,26,03,21,4.80
2009,04,26,03,22,4.80
2009,04,26,03,23,4.80
2009,04,26,03,24,4.80
2009,04,26,03,25,4.70
2009,04,26,03,26,4.70
2009,04,26,03,27,4.70
2009,04,26,03,28,4.70
2009,04,26,03,29,4.70
2009,04,26,03,30,4.70
2009,04,26,03,31,4.70
2009,04,26,03,32,4.60
2009,04,26,03,33,4.60
2009,04,26,03,34,4.60
2009,04,26,03,35,4.60
2009,04,26,03,36,4.50
2009,04,26,03,37,4.50
2009,04,26,03,38,4.40
2009,04,26,03,39,4.40
2009,04,26,03,40,4.30
2009,04,26,03,41,4.30
2009,04,26,03,42,4.30
2009,04,26,03,43,4.20
2009,04,26,03,44,4.20
2009,04,26,03,45,4.20
2009,04,26,03,46,4.20
2009,04,26,03,47,4.10
2009,04,26,03,48,4.10
2009,04,26,03,49,4.00
2009,04,26,03,50,4.00
2009,04,26,03,51,4.00
2009,04,26,03,52,3.90
2009,04,26,03,53,3.90
2009,04,26,03,54,3.90
2009,04,26,03,55,3.90
2009,04,26,03,56,3.90
2009,04,26,03,57,3.90
2009,04,26,03,58,3.80
2009,04,26,03,59,3.80
2009,04,26,04,00,3.80
2009,04,26,04,01,3.80
2009,04,26,04,02,3.80
2009,04,26,04,03,3.80
2009,04,26,04,04,3.80
2009,04,26,04,05,3.80
2009,04,26,04,06,3.80
2009,04,26,04,07,3.80
2009,04,26,04,08,3.70
2009,04,26,04,09,3.70
2009,04,26,04,10,3.70
2009,04,26,04,11,3.60
2009,04,26,04,12,3.60
2009,04,26,04,13,3.60
2009,04,26,04,14,3.60
2009,04,26,04,15,3.60
2009,04,26,04,16,3.60
2009,04,26,04,17,3.60
2009,04,26,04,18,3.60
2009,04,26,04,19,3.60
2009,04,26,04,20,3.50
2009,04,26,04,21,3.50
2009,04,26,04,22,3.50
2009,04,26,04,23,3.40
2009,04,26,04,24,3.40
2009,04,26,04,25,3.40
2009,04,26,04,26,3.40
2009,04,26,04,27,3.30
2009,04,26,04,28,3.30
2009,04,26,04,29,3.30
2009,04,26,04,30,3.30
2009,04,26,04,31,3.30
2009,04,26,04,32,3.20
2009,04,26,04,33,3.20
2009,04,26,04,34,3.20
2009,04,26,04,35,3.20
2009,04,26,04,36,3.20
2009,04,26,04,37,3.20
2009,04,26,04,38,3.10
2009,04,26,04,39,3.10
2009,04,26,04,40,3.10
2009,04,26,04,41,3.10
2009,04,26,04,42,3.10
2009,04,26,04,43,3.00
2009,04,26,04,44,3.00
2009,04,26,04,45,3.00
2009,04,26,04,46,3.10
2009,04,26,04,47,3.00
2009,04,26,04,48,3.00
2009,04,26,04,49,3.00
2009,04,26,04,50,2.90
2009,04,26,04,51,2.90
2009,04,26,04,52,2.90
2009,04,26,04,53,2.90
2009,04,26,04,54,2.90
2009,04,26,04,55,2.90
2009,04,26,04,56,2.90
2009,04,26,04,57,2.90
2009,04,26,04,58,2.90
2009,04,26,04,59,2.90
2009,04,26,05,00,2.90
2009,04,26,05,01,2.90
2009,04,26,05,02,2.90
2009,04,26,05,03,2.90
2009,04,26,05,04,2.90
2009,04,26,05,05,2.90
2009,04,26,05,06,2.90
2009,04,26,05,07,2.90
2009,04,26,05,08,2.90
2009,04,26,05,09,2.90
2009,04,26,05,10,2.80
2009,04,26,05,11,2.80
2009,04,26,05,12,2.80
2009,04,26,05,13,2.80
2009,04,26,05,14,2.80
2009,04,26,05,15,2.80
2009,04,26,05,16,2.80
2009,04,26,05,17,2.80
2009,04,26,05,18,2.80
2009,04,26,05,19,2.80
2009,04,26,05,20,2.80
2009,04,26,05,21,2.70
2009,04,26,05,22,2.70
2009,04,26,05,23,2.60
2009,04,26,05,24,2.60
2009,04,26,05,25,2.50
2009,04,26,05,26,2.50
2009,04,26,05,27,2.50
2009,04,26,05,28,2.40
2009,04,26,05,29,2.40
2009,04,26,05,30,2.40
2009,04,26,05,31,2.40
2009,04,26,05,32,2.40
2009,04,26,05,33,2.40
2009,04,26,05,34,2.30
2009,04,26,05,35,2.30
2009,04,26,05,36,2.30
2009,04,26,05,37,2.30
2009,04,26,05,38,2.30
2009,04,26,05,39,2.20
2009,04,26,05,40,2.20
2009,04,26,05,41,2.20
2009,04,26,05,42,2.30
2009,04,26,05,43,2.30
2009,04,26,05,44,2.30
2009,04,26,05,45,2.30
2009,04,26,05,46,2.30
2009,04,26,05,47,2.30
2009,04,26,05,48,2.40
2009,04,26,05,49,2.40
2009,04,26,05,50,2.40
2009,04,26,05,51,2.40
2009,04,26,05,52,2.40
2009,04,26,05,53,2.40
2009,04,26,05,54,2.40
2009,04,26,05,55,2.40
2009,04,26,05,56,2.40
2009,04,26,05,57,2.40
2009,04,26,05,58,2.40
2009,04,26,05,59,2.40
2009,04,26,06,00,2.30
2009,04,26,06,01,2.30
2009,04,26,06,02,2.30
2009,04,26,06,03,2.40
2009,04,26,06,04,2.40
2009,04,26,06,05,2.40
2009,04,26,06,06,2.40
2009,04,26,06,07,2.40
2009,04,26,06,08,2.30
2009,04,26,06,09,2.30
2009,04,26,06,10,2.30
2009,04,26,06,11,2.30
2009,04,26,06,12,2.20
2009,04,26,06,13,2.20
2009,04,26,06,14,2.20
2009,04,26,06,15,2.10
2009,04,26,06,16,2.10
2009,04,26,06,17,2.10
2009,04,26,06,18,2.10
2009,04,26,06,19,2.10
2009,04,26,06,20,2.20
2009,04,26,06,21,2.20
2009,04,26,06,22,2.20
2009,04,26,06,23,2.30
2009,04,26,06,24,2.30
2009,04,26,06,25,2.30
2009,04,26,06,26,2.30
2009,04,26,06,27,2.30
2009,04,26,06,28,2.30
2009,04,26,06,29,2.30
2009,04,26,06,30,2.30
2009,04,26,06,31,2.30
2009,04,26,06,32,2.30
2009,04,26,06,33,2.30
2009,04,26,06,34,2.30
2009,04,26,06,35,2.30
2009,04,26,06,36,2.30
2009,04,26,06,37,2.30
2009,04,26,06,38,2.20
2009,04,26,06,39,2.20
2009,04,26,06,40,2.30
2009,04,26,06,41,2.30
2009,04,26,06,42,2.30
2009,04,26,06,43,2.30
2009,04,26,06,44,2.30
2009,04,26,06,45,2.30
2009,04,26,06,46,2.30
2009,04,26,06,47,2.30
2009,04,26,06,48,2.20
2009,04,26,06,49,2.20
2009,04,26,06,50,2.20
2009,04,26,06,51,2.20
2009,04,26,06,52,2.20
2009,04,26,06,53,2.20
2009,04,26,06,54,2.20
2009,04,26,06,55,2.30
2009,04,26,06,56,2.30
2009,04,26,06,57,2.30
2009,04,26,06,58,2.30
2009,04,26,06,59,2.30
2009,04,26,07,00,2.30
2009,04,26,07,01,2.30
2009,04,26,07,02,2.40
2009,04,26,07,03,2.40
2009,04,26,07,04,2.40
2009,04,26,07,05,2.50
2009,04,26,07,06,2.50
2009,04,26,07,07,2.60
2009,04,26,07,08,2.60
2009,04,26,07,09,2.60
2009,04,26,07,10,2.60
2009,04,26,07,11,2.70
2009,04,26,07,12,2.70
2009,04,26,07,13,2.70
2009,04,26,07,14,2.80
2009,04,26,07,15,2.80
2009,04,26,07,16,2.90
2009,04,26,07,17,2.90
2009,04,26,07,18,3.00
2009,04,26,07,19,3.00
2009,04,26,07,20,3.10
2009,04,26,07,21,3.20
2009,04,26,07,22,3.20
2009,04,26,07,23,3.30
2009,04,26,07,24,3.40
2009,04,26,07,25,3.50
2009,04,26,07,26,3.50
2009,04,26,07,27,3.60
2009,04,26,07,28,3.70
2009,04,26,07,29,3.80
2009,04,26,07,30,3.90
2009,04,26,07,31,4.00
2009,04,26,07,32,4.10
2009,04,26,07,33,4.10
2009,04,26,07,34,4.20
2009,04,26,07,35,4.30
2009,04,26,07,36,4.30
2009,04,26,07,37,4.40
2009,04,26,07,38,4.50
2009,04,26,07,39,4.60
2009,04,26,07,40,4.70
2009,04,26,07,41,4.80
2009,04,26,07,42,4.90
2009,04,26,07,43,5.00
2009,04,26,07,44,5.10
2009,04,26,07,45,5.20
2009,04,26,07,46,5.20
2009,04,26,07,47,5.30
2009,04,26,07,48,5.40
2009,04,26,07,49,5.50
2009,04,26,07,50,5.50
2009,04,26,07,51,5.60
2009,04,26,07,52,5.70
2009,04,26,07,53,5.80
2009,04,26,07,54,5.90
2009,04,26,07,55,5.90
2009,04,26,07,56,6.00
2009,04,26,07,57,6.10
2009,04,26,07,58,6.10
2009,04,26,07,59,6.20
2009,04,26,08,00,6.30
2009,04,26,08,01,6.40
2009,04,26,08,02,6.50
2009,04,26,08,03,6.60
2009,04,26,08,04,6.70
2009,04,26,08,05,6.70
2009,04,26,08,06,6.80
2009,04,26,08,07,6.90
2009,04,26,08,08,7.00
2009,04,26,08,09,7.10
2009,04,26,08,10,7.20
2009,04,26,08,11,7.20
2009,04,26,08,12,7.30
2009,04,26,08,13,7.40
2009,04,26,08,14,7.40
2009,04,26,08,15,7.60
2009,04,26,08,16,7.70
2009,04,26,08,17,7.80
2009,04,26,08,18,7.80
2009,04,26,08,19,7.90
2009,04,26,08,20,8.00
2009,04,26,08,21,8.10
2009,04,26,08,22,8.20
2009,04,26,08,23,8.30
2009,04,26,08,24,8.30
2009,04,26,08,25,8.40
2009,04,26,08,26,8.40
2009,04,26,08,27,8.50
2009,04,26,08,28,8.60
2009,04,26,08,29,8.60
2009,04,26,08,30,8.70
2009,04,26,08,31,8.80
2009,04,26,08,32,8.80
2009,04,26,08,33,8.90
2009,04,26,08,34,9.00
2009,04,26,08,35,9.00
2009,04,26,08,36,9.00
2009,04,26,08,37,9.00
2009,04,26,08,38,9.00
2009,04,26,08,39,9.00
2009,04,26,08,40,9.10
2009,04,26,08,41,9.10
2009,04,26,08,42,9.10
2009,04,26,08,43,9.10
2009,04,26,08,44,9.10
2009,04,26,08,45,9.10
2009,04,26,08,46,9.20
2009,04,26,08,47,9.20
2009,04,26,08,48,9.20
2009,04,26,08,49,9.20
2009,04,26,08,50,9.20
2009,04,26,08,51,9.20
2009,04,26,08,52,9.20
2009,04,26,08,53,9.30
2009,04,26,08,54,9.30
2009,04,26,08,55,9.40
2009,04,26,08,56,9.40
2009,04,26,08,57,9.50
2009,04,26,08,58,9.60
2009,04,26,08,59,9.50
2009,04,26,09,00,9.50
2009,04,26,09,01,9.50
2009,04,26,09,02,9.50
2009,04,26,09,03,9.60
2009,04,26,09,04,9.70
2009,04,26,09,05,9.80
2009,04,26,09,06,10.00
2009,04,26,09,07,10.00
2009,04,26,09,08,10.10
2009,04,26,09,09,10.10
2009,04,26,09,10,10.20
2009,04,26,09,11,10.20
2009,04,26,09,12,10.30
2009,04,26,09,13,10.30
2009,04,26,09,14,10.30
2009,04,26,09,15,10.30
2009,04,26,09,16,10.30
2009,04,26,09,17,10.30
2009,04,26,09,18,10.30
2009,04,26,09,19,10.40
2009,04,26,09,20,10.40
2009,04,26,09,21,10.50
2009,04,26,09,22,10.60
2009,04,26,09,23,10.70
2009,04,26,09,24,10.70
2009,04,26,09,25,10.80
2009,04,26,09,26,10.80
2009,04,26,09,27,10.80
2009,04,26,09,28,10.90
2009,04,26,09,29,10.90
2009,04,26,09,30,11.00
2009,04,26,09,31,11.00
2009,04,26,09,32,11.10
2009,04,26,09,33,11.10
2009,04,26,09,34,11.20
2009,04,26,09,35,11.20
2009,04,26,09,36,11.10
2009,04,26,09,37,11.10
2009,04,26,09,38,11.10
2009,04,26,09,39,11.10
2009,04,26,09,40,11.10
2009,04,26,09,41,11.20
2009,04,26,09,42,11.20
2009,04,26,09,43,11.30
2009,04,26,09,44,11.40
2009,04,26,09,45,11.50
2009,04,26,09,46,11.60
2009,04,26,09,47,11.60
2009,04,26,09,48,11.70
2009,04,26,09,49,11.80
2009,04,26,09,50,11.80
2009,04,26,09,51,11.90
2009,04,26,09,52,11.90
2009,04,26,09,53,12.00
2009,04,26,09,54,12.00
2009,04,26,09,55,11.90
2009,04,26,09,56,11.90
2009,04,26,09,57,11.90
2009,04,26,09,58,11.80
2009,04,26,09,59,11.70
2009,04,26,10,00,11.60
2009,04,26,10,01,11.50
2009,04,26,10,02,11.40
2009,04,26,10,03,11.40
2009,04,26,10,04,11.30
2009,04,26,10,05,11.30
2009,04,26,10,06,11.40
2009,04,26,10,07,11.40
2009,04,26,10,08,11.50
2009,04,26,10,09,11.50
2009,04,26,10,10,11.60
2009,04,26,10,11,11.60
2009,04,26,10,12,11.60
2009,04,26,10,13,11.60
2009,04,26,10,14,11.60
2009,04,26,10,15,11.60
2009,04,26,10,16,11.50
2009,04,26,10,17,11.50
2009,04,26,10,18,11.40
2009,04,26,10,19,11.30
2009,04,26,10,20,11.40
2009,04,26,10,21,11.50
2009,04,26,10,22,11.60
2009,04,26,10,23,11.60
2009,04,26,10,24,11.70
2009,04,26,10,25,11.70
2009,04,26,10,26,11.80
2009,04,26,10,27,11.80
2009,04,26,10,28,11.90
2009,04,26,10,29,12.00
2009,04,26,10,30,12.10
2009,04,26,10,31,12.10
2009,04,26,10,32,12.00
2009,04,26,10,33,12.00
2009,04,26,10,34,11.90
2009,04,26,10,35,11.80
2009,04,26,10,36,11.80
2009,04,26,10,37,11.70
2009,04,26,10,38,11.70
2009,04,26,10,39,11.80
2009,04,26,10,40,11.80
2009,04,26,10,41,11.80
2009,04,26,10,42,11.80
2009,04,26,10,43,11.80
2009,04,26,10,44,11.70
2009,04,26,10,45,11.60
2009,04,26,10,46,11.50
2009,04,26,10,47,11.40
2009,04,26,10,48,11.30
2009,04,26,10,49,11.30
2009,04,26,10,50,11.40
2009,04,26,10,51,11.40
2009,04,26,10,52,11.30
2009,04,26,10,53,11.30
2009,04,26,10,54,11.30
2009,04,26,10,55,11.30
2009,04,26,10,56,11.30
2009,04,26,10,57,11.30
2009,04,26,10,58,11.30
2009,04,26,10,59,11.30
2009,04,26,11,00,11.30
2009,04,26,11,01,11.40
2009,04,26,11,02,11.30
2009,04,26,11,03,11.30
2009,04,26,11,04,11.30
2009,04,26,11,05,11.30
2009,04,26,11,06,11.30
2009,04,26,11,07,11.20
2009,04,26,11,08,11.20
2009,04,26,11,09,11.20
2009,04,26,11,10,11.20
2009,04,26,11,11,11.20
2009,04,26,11,12,11.20
2009,04,26,11,13,11.30
2009,04,26,11,14,11.40
2009,04,26,11,15,11.50
2009,04,26,11,16,11.60
2009,04,26,11,17,11.70
2009,04,26,11,18,11.80
2009,04,26,11,19,12.00
2009,04,26,11,20,12.10
2009,04,26,11,21,12.20
2009,04,26,11,22,12.30
2009,04,26,11,23,12.40
2009,04,26,11,24,12.50
2009,04,26,11,25,12.60
2009,04,26,11,26,12.60
2009,04,26,11,27,12.60
2009,04,26,11,28,12.60
2009,04,26,11,29,12.70
2009,04,26,11,30,12.80
2009,04,26,11,31,13.00
2009,04,26,11,32,13.10
2009,04,26,11,33,13.10
2009,04,26,11,34,13.20
2009,04,26,11,35,13.20
2009,04,26,11,36,13.20
2009,04,26,11,37,13.20
2009,04,26,11,38,13.20
2009,04,26,11,39,13.20
2009,04,26,11,40,13.20
2009,04,26,11,41,13.10
2009,04,26,11,42,13.00
2009,04,26,11,43,13.00
2009,04,26,11,44,12.90
2009,04,26,11,45,12.90
2009,04,26,11,46,12.90
2009,04,26,11,47,12.80
2009,04,26,11,48,12.80
2009,04,26,11,49,12.70
2009,04,26,11,50,12.70
2009,04,26,11,51,12.60
2009,04,26,11,52,12.60
2009,04,26,11,53,12.60
2009,04,26,11,54,12.60
2009,04,26,11,55,12.50
2009,04,26,11,56,12.40
2009,04,26,11,57,12.30
2009,04,26,11,58,12.20
2009,04,26,11,59,12.20
2009,04,26,12,00,12.20
2009,04,26,12,01,12.30
2009,04,26,12,02,12.40
2009,04,26,12,03,12.30
2009,04,26,12,04,12.20
2009,04,26,12,05,12.20
2009,04,26,12,06,12.20
2009,04,26,12,07,12.30
2009,04,26,12,08,12.30
2009,04,26,12,09,12.30
2009,04,26,12,10,12.20
2009,04,26,12,11,12.20
2009,04,26,12,12,12.20
2009,04,26,12,13,12.20
2009,04,26,12,14,12.20
2009,04,26,12,15,12.20
2009,04,26,12,16,12.20
2009,04,26,12,17,12.30
2009,04,26,12,18,12.40
2009,04,26,12,19,12.50
2009,04,26,12,20,12.50
2009,04,26,12,21,12.50
2009,04,26,12,22,12.40
2009,04,26,12,23,12.40
2009,04,26,12,24,12.50
2009,04,26,12,25,12.60
2009,04,26,12,26,12.60
2009,04,26,12,27,12.70
2009,04,26,12,28,12.70
2009,04,26,12,29,12.70
2009,04,26,12,30,12.80
2009,04,26,12,31,12.90
2009,04,26,12,32,12.90
2009,04,26,12,33,12.90
2009,04,26,12,34,12.90
2009,04,26,12,35,12.90
2009,04,26,12,36,12.80
2009,04,26,12,37,12.80
2009,04,26,12,38,12.80
2009,04,26,12,39,12.80
2009,04,26,12,40,12.80
2009,04,26,12,41,12.90
2009,04,26,12,42,13.00
2009,04,26,12,43,13.10
2009,04,26,12,44,13.10
2009,04,26,12,45,13.10
2009,04,26,12,46,13.10
2009,04,26,12,47,13.00
2009,04,26,12,48,13.00
2009,04,26,12,49,13.00
2009,04,26,12,50,12.90
2009,04,26,12,51,13.00
2009,04,26,12,52,13.00
2009,04,26,12,53,13.10
2009,04,26,12,54,13.00
2009,04,26,12,55,12.90
2009,04,26,12,56,13.00
2009,04,26,12,57,13.10
2009,04,26,12,58,13.20
2009,04,26,12,59,13.30
2009,04,26,13,00,13.30
2009,04,26,13,01,13.30
2009,04,26,13,02,13.30
2009,04,26,13,03,13.30
2009,04,26,13,04,13.30
2009,04,26,13,05,13.20
2009,04,26,13,06,13.10
2009,04,26,13,07,13.00
2009,04,26,13,08,12.90
2009,04,26,13,09,13.00
2009,04,26,13,10,13.10
2009,04,26,13,11,13.20
2009,04,26,13,12,13.20
2009,04,26,13,13,13.30
2009,04,26,13,14,13.40
2009,04,26,13,15,13.40
2009,04,26,13,16,13.50
2009,04,26,13,17,13.60
2009,04,26,13,18,13.60
2009,04,26,13,19,13.80
2009,04,26,13,20,13.80
2009,04,26,13,21,13.80
2009,04,26,13,22,13.70
2009,04,26,13,23,13.70
2009,04,26,13,24,13.60
2009,04,26,13,25,13.50
2009,04,26,13,26,13.50
2009,04,26,13,27,13.50
2009,04,26,13,28,13.50
2009,04,26,13,29,13.40
2009,04,26,13,30,13.40
2009,04,26,13,31,13.20
2009,04,26,13,32,13.10
2009,04,26,13,33,12.90
2009,04,26,13,34,12.80
2009,04,26,13,35,12.70
2009,04,26,13,36,12.60
2009,04,26,13,37,12.60
2009,04,26,13,38,12.60
2009,04,26,13,39,12.60
2009,04,26,13,40,12.80
2009,04,26,13,41,12.90
2009,04,26,13,42,13.10
2009,04,26,13,43,13.30
2009,04,26,13,44,13.30
2009,04,26,13,45,13.20
2009,04,26,13,46,13.10
2009,04,26,13,47,12.90
2009,04,26,13,48,12.70
2009,04,26,13,49,12.60
2009,04,26,13,50,12.50
2009,04,26,13,51,12.50
2009,04,26,13,52,12.40
2009,04,26,13,53,12.50
2009,04,26,13,54,12.60
2009,04,26,13,55,12.80
2009,04,26,13,56,13.00
2009,04,26,13,57,13.20
2009,04,26,13,58,13.40
2009,04,26,13,59,13.60
2009,04,26,14,00,13.70
2009,04,26,14,01,13.90
2009,04,26,14,02,14.10
2009,04,26,14,03,14.20
2009,04,26,14,04,14.30
2009,04,26,14,05,14.30
2009,04,26,14,06,14.20
2009,04,26,14,07,14.10
2009,04,26,14,08,14.00
2009,04,26,14,09,13.90
2009,04,26,14,10,13.90
2009,04,26,14,11,13.80
2009,04,26,14,12,13.70
2009,04,26,14,13,13.70
2009,04,26,14,14,13.70
2009,04,26,14,15,13.60
2009,04,26,14,16,13.70
2009,04,26,14,17,13.80
2009,04,26,14,18,14.00
2009,04,26,14,19,14.20
2009,04,26,14,20,14.30
2009,04,26,14,21,14.30
2009,04,26,14,22,14.40
2009,04,26,14,23,14.40
2009,04,26,14,24,14.40
2009,04,26,14,25,14.50
2009,04,26,14,26,14.70
2009,04,26,14,27,14.70
2009,04,26,14,28,14.70
2009,04,26,14,29,14.80
2009,04,26,14,30,14.70
2009,04,26,14,31,14.60
2009,04,26,14,32,14.50
2009,04,26,14,33,14.40
2009,04,26,14,34,14.30
2009,04,26,14,35,14.20
2009,04,26,14,36,14.10
2009,04,26,14,37,13.90
2009,04,26,14,38,13.80
2009,04,26,14,39,13.90
2009,04,26,14,40,14.00
2009,04,26,14,41,14.10
2009,04,26,14,42,14.20
2009,04,26,14,43,14.20
2009,04,26,14,44,14.40
2009,04,26,14,45,14.50
2009,04,26,14,46,14.60
2009,04,26,14,47,14.60
2009,04,26,14,48,14.60
2009,04,26,14,49,14.60
2009,04,26,14,50,14.60
2009,04,26,14,51,14.60
2009,04,26,14,52,14.60
2009,04,26,14,53,14.60
2009,04,26,14,54,14.60
2009,04,26,14,55,14.70
2009,04,26,14,56,14.70
2009,04,26,14,57,14.70
2009,04,26,14,58,14.80
2009,04,26,14,59,14.80
2009,04,26,15,00,14.90
2009,04,26,15,01,14.80
2009,04,26,15,02,14.70
2009,04,26,15,03,14.60
2009,04,26,15,04,14.50
2009,04,26,15,05,14.40
2009,04,26,15,06,14.40
2009,04,26,15,07,14.30
2009,04,26,15,08,14.30
2009,04,26,15,09,14.30
2009,04,26,15,10,14.30
2009,04,26,15,11,14.30
2009,04,26,15,12,14.40
2009,04,26,15,13,14.40
2009,04,26,15,14,14.40
2009,04,26,15,15,14.40
2009,04,26,15,16,14.40
2009,04,26,15,17,14.30
2009,04,26,15,18,14.30
2009,04,26,15,19,14.30
2009,04,26,15,20,14.30
2009,04,26,15,21,14.30
2009,04,26,15,22,14.30
2009,04,26,15,23,14.40
2009,04,26,15,24,14.50
2009,04,26,15,25,14.70
2009,04,26,15,26,14.80
2009,04,26,15,27,14.80
2009,04,26,15,28,14.80
2009,04,26,15,29,14.70
2009,04,26,15,30,14.70
2009,04,26,15,31,14.80
2009,04,26,15,32,14.80
2009,04,26,15,33,14.80
2009,04,26,15,34,14.70
2009,04,26,15,35,14.70
2009,04,26,15,36,14.60
2009,04,26,15,37,14.50
2009,04,26,15,38,14.60
2009,04,26,15,39,14.60
2009,04,26,15,40,14.60
2009,04,26,15,41,14.60
2009,04,26,15,42,14.60
2009,04,26,15,43,14.50
2009,04,26,15,44,14.50
2009,04,26,15,45,14.50
2009,04,26,15,46,14.50
2009,04,26,15,47,14.40
2009,04,26,15,48,14.40
2009,04,26,15,49,14.40
2009,04,26,15,50,14.40
2009,04,26,15,51,14.40
2009,04,26,15,52,14.40
2009,04,26,15,53,14.50
2009,04,26,15,54,14.60
2009,04,26,15,55,14.60
2009,04,26,15,56,14.70
2009,04,26,15,57,14.70
2009,04,26,15,58,14.80
2009,04,26,15,59,14.80
2009,04,26,16,00,14.80
2009,04,26,16,01,14.70
2009,04,26,16,02,14.70
2009,04,26,16,03,14.70
2009,04,26,16,04,14.60
2009,04,26,16,05,14.50
2009,04,26,16,06,14.40
2009,04,26,16,07,14.30
2009,04,26,16,08,14.30
2009,04,26,16,09,14.30
2009,04,26,16,10,14.30
2009,04,26,16,11,14.30
2009,04,26,16,12,14.30
2009,04,26,16,13,14.30
2009,04,26,16,14,14.30
2009,04,26,16,15,14.20
2009,04,26,16,16,14.30
2009,04,26,16,17,14.50
2009,04,26,16,18,14.60
2009,04,26,16,19,14.60
2009,04,26,16,20,14.70
2009,04,26,16,21,14.70
2009,04,26,16,22,14.60
2009,04,26,16,23,14.60
2009,04,26,16,24,14.50
2009,04,26,16,25,14.50
2009,04,26,16,26,14.40
2009,04,26,16,27,14.30
2009,04,26,16,28,14.10
2009,04,26,16,29,14.10
2009,04,26,16,30,14.10
2009,04,26,16,31,14.10
2009,04,26,16,32,14.00
2009,04,26,16,33,13.90
2009,04,26,16,34,13.90
2009,04,26,16,35,13.80
2009,04,26,16,36,13.80
2009,04,26,16,37,13.80
2009,04,26,16,38,13.70
2009,04,26,16,39,13.70
2009,04,26,16,40,13.80
2009,04,26,16,41,13.90
2009,04,26,16,42,13.80
2009,04,26,16,43,13.80
2009,04,26,16,44,13.80
2009,04,26,16,45,13.70
2009,04,26,16,46,13.70
2009,04,26,16,47,13.70
2009,04,26,16,48,13.60
2009,04,26,16,49,13.70
2009,04,26,16,50,13.70
2009,04,26,16,51,13.70
2009,04,26,16,52,13.80
2009,04,26,16,53,13.70
2009,04,26,16,54,13.70
2009,04,26,16,55,13.80
2009,04,26,16,56,13.80
2009,04,26,16,57,13.90
2009,04,26,16,58,13.90
2009,04,26,16,59,13.80
2009,04,26,17,00,13.70
2009,04,26,17,01,13.60
2009,04,26,17,02,13.60
2009,04,26,17,03,13.60
2009,04,26,17,04,13.60
2009,04,26,17,05,13.70
2009,04,26,17,06,13.70
2009,04,26,17,07,13.80
2009,04,26,17,08,13.80
2009,04,26,17,09,13.90
2009,04,26,17,10,13.90
2009,04,26,17,11,13.90
2009,04,26,17,12,13.90
2009,04,26,17,13,13.90
2009,04,26,17,14,13.90
2009,04,26,17,15,13.90
2009,04,26,17,16,14.00
2009,04,26,17,17,14.00
2009,04,26,17,18,14.10
2009,04,26,17,19,14.10
2009,04,26,17,20,14.10
2009,04,26,17,21,14.10
2009,04,26,17,22,14.10
2009,04,26,17,23,14.00
2009,04,26,17,24,13.90
2009,04,26,17,25,13.80
2009,04,26,17,26,13.70
2009,04,26,17,27,13.70
2009,04,26,17,28,13.70
2009,04,26,17,29,13.80
2009,04,26,17,30,13.80
2009,04,26,17,31,13.80
2009,04,26,17,32,13.70
2009,04,26,17,33,13.70
2009,04,26,17,34,13.80
2009,04,26,17,35,13.70
2009,04,26,17,36,13.80
2009,04,26,17,37,13.80
2009,04,26,17,38,14.00
2009,04,26,17,39,14.10
2009,04,26,17,40,14.10
2009,04,26,17,41,14.20
2009,04,26,17,42,14.30
2009,04,26,17,43,14.40